Tracking 17925 objects as of 23-January-2017
HD Live streaming from Space Station
objects crossing your sky now

COSMOS 2251 DEB

Track COSMOS 2251 DEB now!
10-day predictions


NORAD ID: 37120
Int'l Code: 1993-036BGS
Perigee: 734.6 km
Apogee: 812.1 km
Inclination: 74.0 °
Period: 100.2 minutes
Semi major axis: 7144 km
RCS: 0.0125 m2 (small)
Launch date: June 16, 1993
Source: Commonwealth of Independent States (former USSR) (CIS)
Launch site: PLESETSK MISSILE AND SPACE COMPLEX (PKMTR)

Note: This is SATELLITE DEBRIS
Your satellite tracking list
Your tracking list is empty





NASA's NSSDC Master Catalog

Two Line Element Set (TLE):
1 37120U 93036BGS 17022.06386644  .00001036  00000-0  34790-3 0  9999
2 37120  74.0167 152.4520 0054289 270.1256  89.3677 14.37667160367917
Source of the keplerian elements: AFSPC